STARLINK-31667, 59609

Orbit data source: Space-Track

STARLINK-31667, 59609 is a payload satellite owned by SpaceX/Seattle (US) in LEO that was launched on Sun, 28 Apr 2024 UTC via an FALCON 9 launch vehicle from the Air Force Eastern Test Range (AFETR). Payload-class satellites include a variety of spacecraft equipped with specific instruments for various scientific and technological missions. These include communications satellites like Starlink; space stations such as the ISS; scientific satellites like the Hubble; Earth observation satellites from companies like Planet Labs, Umbra, and HawkEye 360; GPS; miniature CubeSats for education and research; and military/defense satellites.

Loading next visibility...
Identifier
59609, 2024-080J
Orbit
LEO
Country
Flag of USUS
Related business
Manufacturer
SpaceX/Seattle
Mission
Operational Commercial Communications
Bus & Motor
STARLINK V2M, Unknown motor
Mass
730 kg wet, ~700 kg dry
Launch date (UTC)
2024-04-28 (2 years ago)
Launch vehicle
FALCON 9
Launch site
Air Force Eastern Test Range (AFETR)
Object type
Payload
Rocket body
Debris
Shape & HBR
Box + 2 Pan, 17.7 m
Radar Cross Section
33.884 m², Large (>1 m²)

Expand to show TLE details & history
Last TLE update: 2 days ago

TLE from 2 days ago
0 STARLINK-31667
1 59609U 24080J   26171.31965248  .00000930  00000-0  43327-4 0  9993
2 59609  43.0024 174.4071 0001006 273.9856  86.0881 15.27577969120276
Epoch: 2026-06-20T07:40Z
TLE epoch observation values (Epoch: 2026-06-20T07:40:17.974Z)
Latitude
0.00001°
Longitude
150.79625°
Altitude
482.784 km
Speed
7.626 km/s
True Right ascension
11h 37m 37s
True Declination
0° 00' 00"
Sunlit
Object was in daylight at epoch
Visualization orbit readout
Latitude
Unknown
Longitude
Unknown
Altitude
Unknown
Speed
Unknown
Apparent Right ascension
Unknown
Apparent Declination
Unknown
Sunlit
N/A
Visualization observer readout
Local Sidereal Time
23:19:41
Azimuth
Unknown
Elevation
Unknown
Doppler factor
Unknown
Orbital elements
Apogee altitude
485.69 km
Perigee altitude
484.31 km
Semi-major axis
6,863.137 km
Eccentricity
0.0001
Inclination
43.0024°
RAAN
174.4071°
Arg. of periapsis
273.9856°
True anomaly
86.0996°
Mean anomaly
86.0881°
Eccentric anomaly
86.09385°
Mean motion
3.81733 °/min
Orbital period
94.31 mins
BSTAR
0.000043327
Loading maneuver chart data...
Computing Atmospheric mass density...
Loading historical data...
Loading historical data...
Loading historical data...
Loading historical data...
Loading historical data...
Loading historical data...
Loading historical data...

Documentation

Showing up to 5 results
|